INTELSAT 10-02

Last updated on Tue Sep 22 2026 00:03:10 GMT+0000 (Coordinated Universal Time)

1 28358U 04022A 26264.34633005 -.00000015 00000+0 00000+0 0 9993 2 28358 0.0323 253.8834 0000052 342.4961 247.5397 1.00272788 81523
UTC large
Height (km)
Speed (km/s)
/
Latitude / Longitude
Inclination (degrees)
Orbital Period (minutes)
Azimuth
Elevation
Range (km)
Doppler Factor

Next 0 passes for location: London (51.5072 / 0.1276)

No passes found over London.
INTELSAT 10-02